Regional Weather Roundup
Issued by NWS Bismarck, ND

Home | Current Version | Previous Version | Text Only | Print | Product List | Glossary On
Versions: 1 2 3 4 5 6 7 8 9 10 11 12 13 14 15 16 17 18 19 20 21 22 23 24 25 26 27 28 29 30 31 32 33 34 35 36 37 38 39 40 41 42 43 44 45 46 47 48 49 50
000
ASUS43 KBIS 050210
RWRBIS

NWR BROADCAST TEXT
NATIONAL WEATHER SERVICE BISMARCK ND
900 PM CDT TUE AUG 04 2015

NOTE: "FAIR" INDICATES FEW OR NO CLOUDS BELOW 12,000 FEET WITH NO
SIGNIFICANT WEATHER AND/OR OBSTRUCTIONS TO VISIBILITY.


CITY           SKY/WX    TMP DP  RH WIND       PRES   REMARKS
WILLISTON      CLOUDY    82  55  39 SE15      29.88R
MINOT          PTCLDY    69  54  58 E8        29.95R
MINOT AFB      PTCLDY    72  56  58 E13       29.94R
BISMARCK       PTCLDY    76  61  59 SE6       29.94R
DICKINSON      PTCLDY    73  56  54 SE9       29.92R
GARRISON         N/A     71  60  68 E8        29.94R
HETTINGER ARPT MOCLDY    76  54  46 SE13      29.96R
JAMESTOWN      CLEAR     68  58  70 E8        29.99R
CROSBY         FAIR      72  54  53 E10       29.92S
HARVEY         FAIR      66  55  68 SE6       29.98R
HAZEN          FAIR      75  55  50 SE7       29.94R
LINTON         FAIR      73  64  73 SE7       29.96R
OAKES            N/A     68  57  68 E9        29.99S
STANLEY        FAIR      72  57  60 E8        29.96R
$$

CITY           SKY/WX    TMP DP  RH WIND       PRES   REMARKS
GRAND FORKS    CLEAR     66  56  70 N6        30.00S
GRAND FORKS AF CLEAR     69  53  58 E6        30.01R
DEVILS LAKE      N/A    N/A N/A N/A MISG        N/A
FARGO          CLEAR     68  55  63 E5        30.00R
CAVALIER       FAIR      66  55  68 NE5       30.02S
GRAFTON        FAIR      66  57  72 NE5       30.02S
GWINNER        FAIR      70  59  68 E5        30.00R
LANGDON        FAIR      64  55  72 E8        30.03S
ROLLA          FAIR      61  57  88 E7        30.03R
$$

CITY           SKY/WX    TMP DP  RH WIND       PRES   REMARKS
ABERDEEN       PTCLDY    72  59  63 E7        29.97R
MOBRIDGE       PTCLDY    76  62  62 SE9       29.94R
BUFFALO          N/A     78  60  53 SE10      29.89R
RAPID CITY     MOCLDY    74  60  61 SE5       29.96R
GLASGOW        LGT RAIN  70  61  73 NE14      29.84F
SIDNEY         CLOUDY   N/A N/A N/A SE6       29.86R
WOLF POINT     LGT RAIN  70  63  78 CALM      29.90R
GLENDIVE         N/A    N/A N/A N/A MISG        N/A
MILES CITY     LGT RAIN  66  61  84 SE15G23   29.95R
BAKER          LGT RAIN  65  62  90 W10       29.97R
$$

CITY           SKY/WX    TMP DP  RH WIND       PRES   REMARKS
BILLINGS       MOCLDY    70  49  47 W5        29.99F
GREAT FALLS    FAIR      73  51  46 E6        29.93S
REGINA         CLOUDY    73  54  49 SE15G22   29.88R
ESTEVAN        CLOUDY    72  54  53 E13G21    29.93S
$$



USA.gov is the U.S. government's official web portal to all federal, state and local government web resources and services.